Temp
-2 -2 -2 -2 -2 -2 -2 -2 -2 -2 -2 -2 -2 -2 -2 -2 -2 -2 -3 -3 -4 -4 -4 -5 -5 -7 -6 -6 -6 -6 -6 -7 -7 -7 -6 -6 -6 -6 -6 -6 -7 -7 -7 -7 -7
-2 -2 -2 -2 -2 -2 -2 -2 -2 -2 -2 -2 -2 -2 -2 -2 -2 -2 -3 -3 -4 -4 -4 -4 -5 -6 -6 -6 -6 -6 -8 -6 -6 -7 -6 -6 -6 -6 -6 -6 -7 -7 -7 -7 -7
-2 -2 -2 -2 -2 -2 -2 -2 -2 -2 -2 -2 -3 -3 -3 -2 -2 -2 -3 -3 -4 -4 -4 -5 -5 -6 -6 -6 -6 -7 -6 -6 -6 -6 -6 -6 -6 -6 -7 -6 -6 -6 -7 -7 -7
-2 -2 -2 -2 -2 -2 -3 -3 -3 -3 -3 -3 -3 -3 -3 -3 -3 -3 -3 -4 -4 -5 -5 -5 -6 -6 -6 -4 -6 -7 -6 -6 -6 -6 -6 -6 -6 -7 -7 -7 -6 -6 -7 -7 -7
-2 -2 -2 -2 -3 -3 -3 -3 -3 -3 -3 -3 -3 -3 -3 -3 -3 -3 -4 -4 -5 -5 -5 -6 -6 -6 -6 -6 -7 -6 -6 -6 -6 -6 -6 -6 -6 -6 -6 -7 -7 -7 -7 -7 -7
-2 -2 -3 -3 -3 -3 -3 -3 -3 -3 -3 -3 -4 -3 -3 -3 -4 -4 -5 -5 -5 -6 -5 -5 -6 -6 -6 -6 -5 -6 -6 -7 -6 -6 -6 -6 -6 -6 -6 -7 -7 -7 -6 -7 -7
-2 -3 -3 -3 -3 -3 -3 -3 -3 -4 -4 -4 -4 -4 -4 -4 -4 -4 -5 -6 -6 -6 -6 -6 -6 -5 -6 -6 -6 -6 -6 -7 -7 -6 -6 -7 -7 -6 -6 -7 -7 -8 -7 -7 -8
-3 -3 -3 -4 -3 -3 -3 -3 -4 -4 -4 -4 -4 -4 -4 -4 -4 -4 -5 -6 -6 -6 -7 -7 -6 -5 -5 -7 -7 -7 -7 -7 -7 -6 -6 -7 -7 -6 -6 -7 -8 -9 -8 -8 -9
-4 -5 -5 -5 -5 -5 -4 -4 -4 -4 -4 -5 -5 -5 -5 -5 -5 -4 -5 -5 -6 -7 -7 -7 -6 -5 -6 -6 -5 -7 -8 -8 -7 -6 -6 -6 -7 -5 -5 -6 -8 -8 -8 -8 -8
-5 -5 -5 -6 -6 -6 -6 -6 -6 -5 -5 -5 -5 -5 -5 -5 -5 -5 -5 -6 -7 -7 -7 -6 -6 -7 -6 -6 -7 -7 -7 -8 -7 -7 -6 -5 -5 -6 -6 -6 -8 -8 -8 -8 -8
-5 -5 -5 -6 -6 -6 -7 -7 -7 -7 -6 -6 -6 -6 -5 -5 -6 -5 -5 -6 -7 -8 -7 -7 -6 -6 -7 -6 -7 -7 -8 -7 -7 -7 -6 -6 -6 -6 -6 -6 -6 -7 -7 -7 -7
-5 -5 -6 -6 -6 -7 -7 -8 -8 -7 -7 -7 -6 -6 -6 -6 -6 -5 -6 -6 -6 -8 -7 -7 -7 -7 -6 -6 -8 -8 -8 -8 -7 -7 -7 -7 -7 -6 -6 -6 -6 -6 -6 -7 -6
-5 -6 -6 -6 -7 -7 -7 -8 -8 -8 -8 -7 -7 -7 -7 -6 -6 -6 -6 -6 -7 -8 -8 -8 -7 -7 -6 -7 -7 -7 -7 -8 -7 -6 -7 -7 -7 -7 -6 -6 -6 -6 -6 -6 -6
-6 -6 -6 -7 -7 -7 -7 -7 -8 -8 -8 -8 -7 -7 -7 -7 -7 -7 -7 -6 -7 -8 -8 -8 -7 -8 -6 -7 -7 -7 -7 -6 -6 -6 -6 -5 -6 -6 -6 -6 -6 -6 -7 -6 -6
-6 -6 -7 -7 -7 -8 -8 -8 -8 -8 -9 -8 -8 -7 -8 -8 -8 -7 -7 -7 -7 -8 -7 -7 -7 -7 -8 -7 -6 -6 -6 -5 -5 -5 -7 -7 -5 -6 -6 -6 -6 -6 -6 -6 -6
-7 -7 -8 -8 -8 -8 -8 -8 -8 -9 -9 -8 -8 -8 -8 -8 -8 -8 -7 -7 -7 -8 -8 -7 -8 -7 -8 -6 -6 -6 -5 -5 -5 -6 -6 -6 -7 -7 -7 -6 -5 -6 -6 -7 -6
-7 -8 -8 -8 -8 -8 -9 -9 -8 -9 -9 -8 -8 -8 -8 -9 -8 -8 -8 -7 -7 -7 -7 -8 -7 -7 -6 -7 -6 -5 -7 -6 -6 -5 -6 -5 -6 -7 -6 -6 -6 -6 -6 -6 -6
-7 -8 -9 -9 -9 -9 -9 -9 -9 -9 -9 -9 -10 -9 -10 -10 -10 -8 -8 -8 -7 -8 -8 -8 -7 -8 -7 -6 -7 -6 -7 -7 -5 -4 -5 -6 -6 -6 -6 -6 -6 -7 -7 -6 -7
-8 -9 -9 -9 -9 -9 -9 -9 -9 -9 -10 -10 -10 -10 -9 -10 -10 -10 -9 -9 -9 -8 -8 -7 -7 -7 -8 -7 -6 -7 -6 -6 -5 -5 -5 -6 -5 -5 -6 -6 -6 -6 -7 -4 -8
-8 -9 -9 -9 -9 -9 -9 -9 -9 -9 -10 -10 -9 -9 -9 -9 -9 -9 -9 -9 -9 -8 -8 -8 -8 -7 -8 -7 -6 -7 -7 -6 -5 -5 -5 -7 -6 -6 -6 -6 -7 -6 -7 -7 -8
-8 -9 -9 -9 -9 -9 -9 -9 -10 -9 -9 -9 -9 -9 -9 -9 -9 -9 -9 -9 -9 -8 -7 -8 -8 -8 -7 -7 -7 -6 -6 -6 -6 -7 -5 -6 -6 -6 -6 -6 -7 -7 -7 -8 -8
-8 -9 -9 -9 -9 -9 -9 -10 -9 -10 -9 -9 -9 -9 -9 -9 -9 -8 -8 -8 -9 -9 -7 -7 -7 -7 -7 -7 -7 -7 -6 -6 -5 -5 -5 -5 -6 -7 -7 -7 -6 -7 -7 -7 -7
-8 -9 -9 -9 -8 -9 -9 -10 -10 -10 -9 -9 -9 -9 -9 -9 -9 -8 -9 -8 -8 -8 -9 -8 -7 -7 -6 -7 -7 -7 -7 -6 -5 -5 -5 -5 -6 -6 -7 -7 -7 -7 -7 -7 -7
-8 -10 -9 -9 -9 -9 -9 -9 -10 -9 -9 -9 -9 -9 -9 -9 -9 -9 -9 -9 -9 -9 -8 -7 -7 -8 -7 -7 -7 -6 -7 -7 -6 -6 -5 -6 -6 -6 -7 -7 -7 -7 -7 -7 -7
-8 -9 -9 -10 -10 -10 -10 -10 -10 -10 -9 -9 -9 -9 -9 -9 -9 -9 -9 -9 -9 -9 -8 -7 -7 -8 -8 -8 -7 -7 -7 -7 -7 -7 -6 -7 -7 -7 -7 -7 -7 -7 -7 -8 -8
-8 -8 -8 -9 -9 -9 -10 -10 -10 -10 -9 -10 -9 -9 -9 -9 -9 -9 -9 -9 -9 -9 -8 -8 -8 -8 -7 -7 -7 -7 -7 -7 -7 -7 -7 -7 -6 -7 -8 -8 -7 -7 -7 -7 -7
-8 -8 -8 -8 -9 -10 -10 -10 -10 -8 -8 -8 -8 -9 -9 -9 -9 -9 -9 -8 -9 -9 -8 -8 -8 -8 -8 -8 -7 -7 -7 -7 -7 -7 -7 -7 -7 -8 -8 -8 -7 -7 -7 -7 -7
Height
5941 5940 5939 5939 5939 5938 5937 5935 5934 5933 5932 5931 5930 5929 5928 5927 5926 5925 5924 5924 5922 5920 5919 5918 5917 5918 5919 5920 5921 5922 5922 5921 5920 5919 5916 5914 5913 5910 5907 5903 5900 5898 5898 5899 5901
5939 5938 5938 5937 5937 5937 5936 5934 5933 5932 5931 5931 5930 5929 5928 5928 5927 5926 5926 5924 5923 5922 5921 5919 5919 5920 5920 5919 5920 5921 5925 5921 5920 5919 5917 5915 5913 5910 5907 5904 5900 5896 5897 5899 5900
5936 5936 5935 5935 5934 5934 5934 5933 5932 5931 5930 5930 5930 5929 5928 5928 5928 5927 5926 5925 5924 5922 5922 5921 5922 5922 5922 5923 5923 5923 5924 5921 5920 5919 5918 5916 5913 5909 5908 5905 5899 5896 5896 5898 5900
5933 5932 5932 5931 5931 5931 5931 5930 5930 5929 5929 5928 5928 5928 5928 5928 5930 5928 5927 5926 5925 5924 5924 5924 5924 5925 5924 5924 5922 5921 5922 5921 5920 5920 5919 5917 5914 5912 5910 5907 5901 5901 5899 5900 5902
5929 5928 5928 5927 5926 5927 5927 5926 5926 5926 5926 5926 5927 5926 5927 5927 5927 5927 5927 5927 5926 5926 5925 5927 5926 5928 5926 5925 5923 5922 5921 5921 5921 5920 5920 5919 5916 5915 5912 5910 5905 5904 5903 5902 5904
5924 5923 5922 5922 5921 5921 5922 5921 5922 5922 5923 5923 5924 5924 5925 5926 5926 5926 5927 5928 5927 5926 5925 5927 5928 5929 5927 5925 5922 5920 5920 5921 5922 5921 5921 5921 5918 5917 5914 5913 5911 5909 5908 5907 5907
5918 5917 5916 5915 5914 5913 5915 5916 5916 5917 5918 5919 5921 5921 5922 5924 5925 5925 5927 5927 5928 5927 5927 5927 5928 5928 5928 5925 5923 5920 5920 5921 5922 5922 5922 5922 5921 5918 5917 5917 5915 5913 5911 5912 5912
5912 5910 5908 5907 5905 5904 5905 5907 5909 5910 5913 5914 5916 5918 5921 5921 5923 5924 5926 5927 5928 5929 5929 5928 5929 5929 5927 5920 5920 5922 5922 5923 5924 5924 5924 5914 5921 5921 5920 5920 5919 5917 5917 5917 5918
5904 5902 5901 5899 5897 5895 5895 5897 5899 5903 5906 5908 5911 5914 5917 5919 5921 5923 5925 5927 5928 5929 5930 5930 5930 5930 5930 5921 5920 5925 5923 5926 5927 5925 5925 5908 5925 5924 5923 5923 5923 5921 5923 5924 5925
5899 5897 5895 5894 5891 5888 5885 5886 5889 5894 5898 5902 5906 5910 5915 5916 5918 5921 5923 5926 5928 5930 5931 5931 5930 5927 5934 5929 5929 5927 5925 5931 5930 5928 5925 5925 5925 5925 5926 5927 5927 5927 5927 5928 5930
5895 5893 5891 5889 5887 5883 5880 5879 5883 5887 5891 5895 5900 5904 5908 5913 5915 5918 5921 5924 5927 5930 5931 5931 5932 5908 5935 5935 5933 5933 5934 5935 5932 5930 5928 5927 5927 5927 5928 5930 5930 5930 5931 5931 5932
5892 5890 5888 5886 5884 5881 5878 5877 5880 5885 5888 5893 5896 5902 5906 5909 5912 5915 5919 5923 5925 5928 5931 5932 5934 5936 5935 5934 5936 5937 5936 5936 5934 5932 5932 5932 5931 5930 5929 5931 5932 5932 5932 5933 5933
5890 5887 5885 5884 5883 5881 5879 5878 5879 5882 5887 5890 5893 5897 5901 5906 5909 5912 5916 5920 5923 5926 5929 5933 5913 5938 5936 5937 5941 5940 5935 5934 5934 5933 5934 5935 5933 5933 5932 5932 5932 5932 5933 5934 5935
5889 5886 5884 5883 5883 5881 5881 5881 5881 5883 5887 5890 5892 5894 5898 5901 5905 5908 5912 5917 5920 5924 5928 5934 5934 5937 5937 5940 5939 5927 5938 5936 5935 5931 5932 5930 5927 5933 5932 5932 5932 5933 5934 5934 5936
5889 5887 5885 5883 5882 5882 5882 5883 5884 5886 5894 5891 5890 5893 5895 5900 5903 5906 5909 5913 5916 5922 5924 5931 5935 5934 5938 5937 5938 5937 5939 5938 5937 5935 5938 5938 5918 5927 5934 5931 5931 5932 5933 5934 5935
5891 5889 5887 5886 5885 5885 5884 5884 5887 5891 5890 5889 5890 5892 5895 5898 5901 5903 5907 5911 5914 5917 5923 5925 5931 5933 5936 5937 5939 5940 5940 5940 5940 5939 5933 5942 5932 5924 5934 5932 5930 5930 5930 5931 5932
5893 5892 5890 5889 5889 5887 5887 5888 5889 5890 5890 5889 5889 5891 5895 5898 5900 5903 5906 5909 5914 5917 5920 5925 5930 5932 5936 5938 5940 5940 5941 5926 5940 5941 5941 5939 5941 5938 5935 5933 5931 5927 5926 5926 5928
5895 5893 5893 5891 5890 5889 5889 5891 5890 5892 5894 5889 5891 5892 5898 5900 5901 5902 5905 5908 5912 5916 5928 5929 5934 5933 5936 5938 5942 5942 5940 5931 5943 5945 5945 5939 5938 5936 5934 5931 5929 5925 5924 5923 5925
5895 5895 5894 5893 5892 5891 5892 5888 5896 5894 5891 5891 5893 5896 5900 5899 5902 5904 5905 5908 5912 5915 5924 5929 5931 5933 5935 5937 5939 5940 5940 5942 5945 5945 5939 5936 5939 5936 5933 5931 5928 5920 5920 5922 5923
5896 5896 5895 5894 5894 5894 5891 5896 5891 5890 5891 5894 5898 5899 5901 5901 5901 5903 5906 5909 5913 5913 5918 5924 5922 5926 5934 5935 5937 5936 5937 5943 5946 5944 5945 5936 5940 5936 5935 5933 5930 5924 5922 5922 5923
5896 5896 5895 5895 5895 5896 5892 5897 5894 5893 5892 5894 5900 5901 5902 5903 5904 5907 5909 5908 5910 5911 5916 5922 5926 5930 5931 5934 5938 5937 5938 5940 5942 5940 5943 5939 5936 5936 5936 5935 5932 5928 5926 5925 5927
5894 5896 5895 5895 5898 5898 5895 5898 5897 5896 5895 5897 5894 5892 5902 5904 5905 5909 5908 5910 5907 5912 5914 5919 5926 5928 5932 5934 5935 5937 5939 5941 5944 5943 5943 5944 5935 5935 5935 5936 5935 5933 5932 5932 5932
5892 5893 5894 5895 5888 5898 5898 5898 5898 5899 5899 5899 5899 5898 5898 5903 5906 5908 5907 5905 5905 5909 5916 5920 5925 5928 5931 5933 5931 5933 5935 5936 5940 5943 5942 5942 5932 5935 5934 5935 5934 5934 5933 5933 5933
5890 5894 5892 5893 5892 5896 5899 5899 5896 5896 5897 5897 5898 5900 5901 5903 5905 5906 5907 5906 5908 5910 5912 5918 5924 5920 5925 5925 5930 5934 5932 5933 5937 5934 5932 5931 5932 5932 5931 5932 5932 5932 5932 5931 5931
5886 5888 5889 5894 5894 5896 5896 5896 5898 5897 5895 5897 5898 5898 5898 5902 5906 5907 5908 5908 5910 5911 5913 5919 5922 5913 5916 5924 5928 5930 5932 5933 5934 5927 5926 5916 5921 5929 5930 5931 5930 5931 5930 5929 5929
5881 5882 5884 5886 5888 5889 5893 5894 5894 5893 5891 5895 5895 5896 5898 5900 5887 5904 5906 5909 5911 5911 5914 5918 5916 5919 5925 5925 5926 5928 5930 5929 5931 5930 5932 5923 5912 5919 5930 5929 5928 5928 5928 5927 5926
5876 5877 5879 5882 5884 5886 5891 5889 5887 5886 5887 5887 5889 5893 5895 5894 5898 5900 5902 5904 5906 5910 5916 5917 5917 5917 5923 5920 5924 5927 5928 5929 5929 5928 5930 5932 5922 5920 5926 5926 5926 5926 5925 5923 5922
Wind_Speed
11 11 11 10 10 9 10 11 10 8 7 8 9 9 11 14 15 17 18 17 16 18 17 12 10 8 8 6 6 9 7 7 7 11 12 14 13 13 10 11 13 9 7 6 14
15 15 14 13 12 11 10 10 11 10 9 7 7 7 7 9 10 14 17 16 16 15 16 18 16 11 7 2 4 11 4 5 8 9 12 15 16 14 10 13 14 10 7 8 10
19 17 17 17 16 15 14 13 12 11 10 9 8 7 6 6 6 9 12 14 16 16 16 18 19 14 9 8 7 15 7 4 8 9 12 15 17 14 13 16 12 7 7 7 12
23 21 20 20 18 18 18 16 15 14 12 11 9 7 7 5 3 4 8 10 11 13 14 17 17 22 16 7 10 9 2 3 5 9 11 15 17 15 16 17 14 11 7 14 14
22 22 21 21 22 22 20 20 19 17 15 13 12 10 8 7 4 3 3 7 7 7 11 12 18 6 6 7 3 4 3 1 5 7 12 13 17 18 19 20 13 12 11 18 22
26 25 25 25 25 26 25 23 22 21 18 16 14 13 11 9 6 4 1 2 5 5 10 11 13 13 11 9 2 3 3 3 2 7 9 10 14 16 20 20 19 13 16 14 18
29 29 30 30 30 30 31 29 26 24 21 19 17 16 14 10 8 6 3 2 2 5 6 9 11 12 14 13 4 5 6 5 5 5 8 5 13 15 17 17 17 12 9 17 19
28 29 29 30 32 33 33 34 32 28 24 22 20 19 13 14 11 8 6 6 1 2 2 6 9 13 13 3 15 5 7 6 7 6 5 1 10 13 14 14 14 11 11 27 25
27 26 24 22 25 27 32 33 32 32 28 25 23 20 19 17 14 11 9 5 5 2 6 5 7 13 13 12 13 6 12 8 6 5 4 5 11 12 11 13 11 20 24 20 19
23 21 19 19 20 20 21 28 29 31 30 27 25 24 17 18 17 14 11 8 9 8 7 5 4 7 12 18 13 9 20 8 11 9 3 5 7 9 9 11 14 23 20 15 17
15 15 16 17 17 15 13 16 24 29 31 32 27 28 23 19 18 15 13 11 13 13 9 8 5 19 15 7 14 15 11 8 7 6 5 5 5 8 8 8 11 11 11 17 15
13 13 13 12 12 13 9 8 15 19 26 25 24 18 19 21 21 17 14 14 16 13 13 13 6 8 6 7 8 6 4 4 4 4 7 9 10 10 11 9 8 8 11 17 15
9 9 9 9 8 8 8 1 9 16 19 21 22 22 22 22 21 19 17 17 19 19 17 16 17 13 8 10 5 2 3 5 10 10 6 8 11 8 7 5 7 7 7 10 14
9 9 8 6 5 4 3 5 6 11 13 16 19 22 22 25 25 23 22 22 23 23 20 19 8 18 12 3 5 7 4 3 5 1 10 13 14 8 6 4 2 2 4 6 7
11 11 13 12 11 6 2 3 6 10 8 11 18 18 22 22 22 23 25 28 28 25 26 11 13 15 9 13 12 5 7 6 5 8 9 12 10 14 12 8 7 5 3 4 5
13 15 16 17 16 16 14 10 8 8 9 12 13 15 18 21 19 25 27 27 31 31 29 25 23 18 14 15 13 13 12 9 6 8 12 8 13 21 14 10 10 11 8 6 10
12 13 14 14 14 13 10 13 13 8 7 6 9 13 13 13 18 18 22 23 26 30 35 32 23 20 16 12 14 15 9 16 4 3 9 17 4 16 16 14 15 19 17 11 9
8 10 11 12 16 15 11 13 10 2 1 3 8 9 11 11 11 16 20 21 23 27 14 19 20 19 16 16 10 13 7 9 1 0 7 6 3 13 18 16 21 14 17 15 8
4 6 7 8 12 17 13 15 2 4 3 7 10 10 10 12 10 14 15 16 18 23 18 16 22 20 17 16 16 8 8 7 1 6 15 5 12 7 16 15 25 13 8 15 10
2 4 4 5 8 10 15 6 6 8 13 11 5 8 8 10 8 12 12 15 16 23 24 14 30 25 15 18 15 13 11 1 4 3 1 3 6 9 13 17 21 28 7 4 8
5 3 5 5 8 8 14 1 8 10 14 9 7 7 6 8 9 8 11 12 17 21 35 12 12 6 16 12 7 11 12 7 10 5 1 14 22 6 10 9 16 19 24 22 14
8 4 6 7 9 8 7 3 5 4 8 8 11 10 8 10 10 9 8 8 18 15 30 21 15 5 6 13 13 11 12 11 7 9 10 9 6 6 6 10 8 7 11 11 12
11 9 8 8 18 5 6 5 9 5 8 4 4 9 12 8 9 8 10 10 14 22 14 21 14 8 4 8 7 4 7 14 14 12 7 18 21 13 4 4 2 4 5 4 5
12 6 12 13 6 4 5 5 7 12 10 8 8 6 4 5 10 9 6 15 19 23 24 19 10 14 23 21 14 5 4 8 11 20 21 17 19 17 1 2 2 6 6 7 8
16 20 19 7 12 13 8 8 6 7 14 12 10 13 9 10 7 11 10 13 14 14 19 21 15 14 6 7 5 9 8 6 8 19 11 12 13 7 1 2 3 7 5 10 13
17 18 18 20 19 15 11 11 10 10 15 13 18 17 17 18 10 17 14 11 9 21 16 14 14 4 11 10 8 8 11 10 9 10 6 19 7 3 5 5 7 11 14 12 13
18 19 19 17 15 14 13 23 16 15 11 11 15 21 21 25 21 14 20 16 14 14 13 12 12 7 6 8 9 9 11 14 12 16 5 12 20 8 8 9 11 14 15 13 14
Wind_Direction
314 315 316 319 324 325 328 332 336 337 342 353 6 19 25 31 34 38 39 54 63 58 72 74 73 133 118 97 70 61 58 25 15 7 27 18 11 2 352 2 351 319 266 224 202
302 297 296 299 303 302 306 308 313 316 315 322 337 352 12 22 29 36 36 45 54 63 58 75 87 121 124 111 64 95 32 48 23 47 13 21 14 4 18 10 340 301 250 205 183
296 297 293 290 289 290 290 290 290 291 293 297 308 326 337 5 13 30 35 35 42 53 62 64 71 67 50 25 78 90 263 16 22 23 29 25 21 27 33 12 19 55 154 173 175
287 286 286 285 283 282 281 279 277 278 277 280 283 290 304 319 340 21 31 30 38 51 53 64 58 52 19 16 354 350 272 10 27 31 36 37 33 48 38 30 66 67 131 143 150
286 286 284 282 281 278 275 272 270 268 265 268 270 270 276 284 306 343 28 28 37 40 41 56 68 57 28 7 336 232 272 3 35 37 46 47 49 52 47 42 85 74 107 119 120
288 286 282 279 276 273 271 267 265 260 255 254 254 256 257 259 267 285 313 24 12 17 17 33 47 52 35 15 297 255 212 171 76 52 48 53 56 50 48 47 57 89 104 97 121
287 285 281 277 271 268 265 263 257 255 250 247 244 245 244 260 246 248 256 226 350 348 20 31 43 46 42 10 345 213 189 164 104 74 53 67 62 54 52 46 50 59 97 120 123
290 288 282 276 271 267 260 256 253 247 242 237 236 237 238 236 234 233 225 217 214 340 55 48 42 36 37 154 80 261 211 96 60 54 57 174 82 56 54 58 43 93 121 125 120
297 295 294 293 293 277 261 252 246 239 236 232 228 229 220 223 225 227 224 205 199 236 131 87 42 42 39 335 15 45 55 129 85 78 95 43 76 64 53 71 64 125 131 122 124
303 301 299 303 309 303 272 248 235 229 226 226 224 227 221 226 223 223 219 196 178 180 157 131 111 117 76 333 35 337 87 82 100 87 67 96 93 82 72 74 109 137 129 128 138
315 315 307 307 314 313 296 250 224 218 216 219 215 222 221 217 222 223 219 196 182 181 188 165 184 302 76 157 107 92 108 103 106 91 82 99 120 106 87 79 100 140 146 149 145
315 317 315 307 325 344 322 262 225 225 216 213 216 224 215 211 216 217 212 199 189 182 187 181 163 243 182 100 81 45 119 111 66 73 67 72 95 104 105 98 94 107 135 164 162
325 334 335 331 322 346 11 260 204 202 203 210 213 210 207 209 212 208 199 197 191 185 189 185 208 197 175 119 59 236 332 139 118 88 72 74 86 73 98 120 118 120 132 150 176
22 18 16 6 356 337 20 78 159 189 201 210 212 213 208 205 209 203 192 189 192 188 209 206 266 199 194 101 146 134 122 75 74 161 62 18 85 44 19 1 17 119 154 158 180
41 51 58 57 57 56 88 131 132 134 132 217 216 214 208 203 218 205 196 193 188 198 196 178 201 197 182 211 180 139 123 86 87 77 187 18 257 59 30 48 52 1 288 255 218
42 54 62 64 64 67 76 101 124 126 255 243 222 213 207 210 214 208 205 200 192 189 193 175 203 205 194 170 156 151 121 94 29 339 84 2 318 68 9 6 13 354 327 263 219
45 59 58 55 55 62 74 88 88 345 286 248 229 215 203 203 218 211 210 208 203 200 193 195 191 206 197 166 180 168 188 168 344 126 352 334 34 16 3 354 332 324 318 313 226
52 72 59 50 48 48 70 85 51 185 148 161 171 177 175 204 207 206 207 207 202 195 206 200 219 215 201 184 186 210 255 106 312 250 332 328 33 359 4 24 4 316 297 304 226
61 91 81 63 48 45 88 47 184 191 138 149 160 166 186 184 200 194 206 205 212 197 192 221 208 205 209 205 197 226 269 306 195 229 275 65 333 317 2 12 9 9 193 232 184
186 122 106 84 85 51 70 86 93 108 122 110 115 156 197 193 178 184 210 206 207 202 171 178 227 207 227 216 198 183 232 145 280 267 3 183 93 324 1 20 17 30 78 113 169
222 188 142 118 126 79 77 167 85 90 121 153 146 158 178 188 158 180 227 219 188 205 188 180 221 181 212 208 240 245 229 225 262 189 113 278 281 359 353 348 15 31 53 67 93
212 159 183 160 96 359 147 169 111 110 84 126 175 126 151 192 167 188 211 228 206 189 198 178 194 224 178 213 192 196 218 222 255 243 207 282 251 310 10 350 356 25 42 52 56
219 221 214 178 163 184 271 200 159 182 155 149 176 152 170 172 178 173 206 194 176 174 172 194 161 212 217 259 242 209 249 205 204 242 274 233 248 251 345 358 351 16 8 11 333
212 196 249 193 167 84 222 199 280 226 211 184 155 126 109 154 156 172 180 160 168 174 180 175 181 251 206 188 168 210 221 205 171 240 200 241 255 264 2 1 14 1 319 315 314
218 203 209 183 230 207 199 221 229 264 234 210 198 187 170 163 180 178 176 182 184 192 197 182 228 277 181 131 213 207 193 206 198 277 247 297 226 304 278 355 321 331 313 308 316
230 222 216 211 219 218 247 247 200 261 237 238 214 205 194 195 169 194 170 196 208 214 215 217 244 206 216 246 231 222 249 228 231 263 289 305 222 131 299 300 298 312 318 300 306
229 227 223 218 216 226 218 235 232 245 246 237 222 216 220 225 221 227 205 206 219 206 218 205 241 280 232 232 238 245 223 238 234 255 214 218 234 254 305 295 305 318 319 314 320